Regional Weather Roundup
Issued by NWS Raleigh/Durham, NC

Home | Current Version | Previous Version | Text Only | Print | Product List | Glossary On
Versions: 1 2 3 4 5 6 7 8 9 10 11 12 13 14 15 16 17 18 19 20 21 22 23 24 25 26 27
000
ASUS42 KRAH 010110
RWRRAH
NORTH CAROLINA WEATHER ROUNDUP
NATIONAL WEATHER SERVICE RALEIGH NC
900 PM EDT WED AUG 31 2016

NOTE: "FAIR" INDICATES FEW OR NO CLOUDS BELOW 12,000 FEET WITH NO
SIGNIFICANT WEATHER AND/OR OBSTRUCTIONS TO VISIBILITY.

NCZ001-053-055-056-065-067-010200-
WESTERN NORTH CAROLINA

CITY           SKY/WX    TMP DP  RH WIND       PRES   REMARKS
ASHEVILLE      PTCLDY    76  66  71 CALM      30.01R
JEFFERSON      RAIN      73  65  78 W3        30.07R
MORGANTON      CLEAR     74  72  93 CALM      30.00R
HICKORY        MOCLDY    79  70  74 CALM      29.94R
RUTHERFORDTON    N/A     78  69  74 S5        29.96R
MOUNT AIRY     CLOUDY    80  74  81 CALM      29.96S
BOONE          CLOUDY    69  69  98 CALM      30.08R
$$

NCZ021-022-025-041-071-084-088-010200-
CENTRAL NORTH CAROLINA

CITY           SKY/WX    TMP DP  RH WIND       PRES   REMARKS
CHARLOTTE      PTCLDY    79  67  66 S9        29.94R
GREENSBORO     MOCLDY    82  68  62 S9        29.93S
WINSTON-SALEM  CLEAR     81  65  58 S6        29.94S
RALEIGH-DURHAM MOCLDY    81  69  67 S7        29.93R
FORT BRAGG     PTCLDY    81  70  69 SE3       29.91S
FAYETTEVILLE   CLEAR     81  71  71 SE6       29.92R
BURLINGTON     CLEAR     80  70  71 CALM      29.92S
LAURINBURG     CLOUDY    76  72  87 SW3       29.93R
$$

NCZ011-015-027-028-043-044-047-080-103-010200-
NORTHEASTERN NORTH CAROLINA

CITY           SKY/WX    TMP DP  RH WIND       PRES   REMARKS
ROCKY MT-WILSO PTCLDY    78  74  87 CALM      29.93R
GREENVILLE     PTCLDY    81  75  83 S3        29.95S
WASHINGTON     CLOUDY    78  74  86 S6        29.94R
ELIZABETH CITY   N/A     79  71  76 S6        29.93S
MANTEO         CLOUDY    78  75  90 S3        29.95R
CAPE HATTERAS  CLOUDY    81  75  82 SE3       29.94S
$$

NCZ078-087-090-091-093-098-101-010200-
SOUTHEASTERN NORTH CAROLINA

CITY           SKY/WX    TMP DP  RH WIND       PRES   REMARKS
LUMBERTON      PTCLDY    76  73  91 SE3       29.92S
GOLDSBORO      CLEAR     79  76  92 S3        29.92R
KINSTON        CLEAR     79  73  83 S7        29.94S
KENANSVILLE    MOCLDY    75  73  94 CALM      29.94S
NEW BERN       CLOUDY    77  74  90 S3        29.95R
CHERRY POINT   LGT RAIN  76  73  91 CALM      29.95S
BEAUFORT       LGT RAIN  76  74  93 CALM      29.95R
JACKSONVILLE   MOCLDY    76  73  91 CALM      29.93S
WILMINGTON     CLOUDY    77  72  84 CALM      29.93S
$$





USA.gov is the U.S. government's official web portal to all federal, state and local government web resources and services.